Location: Theydon Bois
(51.6750°N, 0.1050°E)
Time: 19:24:41
(UTC+00:00)

Cosmos 1727 Rocket - Visible Passes

Search period start: 17 November 2017 00:00
Search period end: 27 November 2017 00:00
Orbit: 961 x 996 km, 82.9° (Epoch: 17 November)

Date Brightness Start Highest point End Pass type
(mag) Time Alt. Az. Time Alt. Az. Time Alt. Az.
17 Nov 5.8 02:38:26 26° ENE 02:38:26 26° ENE 02:42:27 10° NNE visible
17 Nov 4.2 04:23:14 55° NW 04:23:14 55° NW 04:28:33 10° N visible
17 Nov 5.5 06:08:01 14° WNW 06:09:07 15° NW 06:12:30 10° NNW visible
17 Nov 6.9 16:55:14 10° WNW 16:56:35 11° WNW 16:57:55 10° W visible
18 Nov 5.4 03:05:25 34° NE 03:05:25 34° NE 03:09:16 10° NNE visible
18 Nov 4.7 04:50:12 35° NW 04:50:12 35° NW 04:54:45 10° N visible
19 Nov 6.7 01:47:31 13° NE 01:47:31 13° NE 01:48:34 10° NE visible
19 Nov 5.1 03:32:17 36° NNE 03:32:17 36° NNE 03:35:49 10° NNE visible
19 Nov 5.2 05:17:03 23° NW 05:17:03 23° NW 05:20:45 10° N visible
20 Nov 6.4 02:14:16 17° NE 02:14:16 17° NE 02:16:00 10° NNE visible
20 Nov 5.2 03:59:02 31° N 03:59:02 31° N 04:02:12 10° N visible
20 Nov 5.6 05:43:48 15° NW 05:43:48 15° NW 05:46:21 10° NNW visible
21 Nov 6.1 02:40:57 20° NNE 02:40:57 20° NNE 02:42:52 10° NNE visible
21 Nov 5.4 04:25:43 24° NNW 04:25:43 24° NNW 04:28:26 10° N visible
22 Nov 5.9 03:07:35 21° NNE 03:07:35 21° NNE 03:09:27 10° NNE visible
22 Nov 5.6 04:52:20 18° NNW 04:52:20 18° NNW 04:54:28 10° N visible
23 Nov 6.8 01:49:24 10° NNE 01:49:24 10° NNE 01:49:31 10° NNE visible
23 Nov 5.9 03:34:09 20° N 03:34:09 20° N 03:35:52 10° N visible
23 Nov 5.8 05:18:55 13° NNW 05:18:55 13° NNW 05:20:11 10° NNW visible
24 Nov 6.6 02:15:56 12° NNE 02:15:56 12° NNE 02:16:27 10° NNE visible
24 Nov 5.9 04:00:41 17° N 04:00:41 17° N 04:02:07 10° N visible
25 Nov 6.5 02:42:26 13° NNE 02:42:26 13° NNE 02:43:05 10° NNE visible
25 Nov 6.0 04:27:11 14° NNW 04:27:11 14° NNW 04:28:11 10° N visible
26 Nov 6.4 03:08:54 13° N 03:08:54 13° N 03:09:31 10° N visible
26 Nov 6.1 04:53:39 11° NNW 04:53:39 11° NNW 04:53:58 10° NNW visible
